This demonstration page uses our WeatherBlox Daily Observations layout. Learn more.

Left ArrowRight Arrow

44.31136, -96.79839

Hourly Observations for November 29, 2021

Temp ( °F °C ) Dew Point ( °F °C ) Humidity (%) Winds ( mph kmh ) Pressure ( in mb ) Visibility ( mi km ) Precip ( " mm )
12:56 am 00:56 Clear 34 1.1 26 -3.3 73 73 SSE 9 15 29.90 1013 10 16 0.00 0.00
1:56 am 01:56 Clear 31 -0.6 26 -3.3 82 82 SE 7 11 29.88 1012 10 16 0.00 0.00
2:56 am 02:56 Clear 31 -0.6 27 -2.8 85 85 SSE 6 9 29.88 1012 10 16 0.00 0.00
3:56 am 03:56 Clear 31 -0.6 27 -2.8 85 85 SSE 7 11 29.85 1011 10 16 0.00 0.00
4:56 am 04:56 Clear 32 0 27 -2.8 82 82 S 3 6 29.85 1011 10 16 0.00 0.00
5:56 am 05:56 Clear 33 0.6 27 -2.8 78 78 SW 3 6 29.84 1011 10 16 0.00 0.00
6:56 am 06:56 Clear 34 1.1 28 -2.2 79 79 W 5 7 29.85 1011 10 16 0.00 0.00
7:56 am 07:56 Sunny 36 2.2 29 -1.7 76 76 WNW 5 7 29.86 1011 10 16 0.00 0.00
8:56 am 08:56 Sunny 41 5 32 0 70 70 WSW 7 11 29.85 1011 10 16 0.00 0.00
9:56 am 09:56 Sunny 48 8.9 36 2.2 63 63 WNW 14 22 29.85 1011 10 16 0.00 0.00
10:56 am 10:56 Sunny 53 11.7 35 1.7 51 51 WNW 16 26 29.84 1011 10 16 0.00 0.00
11:56 am 11:56 Sunny 57 13.9 35 1.7 44 44 NW 21 33 29.84 1011 10 16 0.00 0.00
12:56 pm 12:56 Sunny 57 13.9 36 2.2 45 45 NW 22 35 29.84 1011 10 16 0.00 0.00
1:56 pm 13:56 Sunny 57 13.9 35 1.7 44 44 NW 18 30 29.85 1011 10 16 0.00 0.00
2:56 pm 14:56 Sunny 57 13.9 35 1.7 44 44 NW 21 33 29.88 1012 10 16 0.00 0.00
3:56 pm 15:56 Sunny 55 12.8 34 1.1 45 45 NNW 16 26 29.93 1013 10 16 0.00 0.00
4:56 pm 16:56 Clear 49 9.4 34 1.1 56 56 NW 10 17 29.96 1015 10 16 0.00 0.00
5:56 pm 17:56 Clear 43 6.1 32 0 65 65 NNW 6 9 29.99 1016 10 16 0.00 0.00
6:56 pm 18:56 Clear 36 2.2 29 -1.7 76 76 W 3 6 30.02 1017 10 16 0.00 0.00
7:56 pm 19:56 Clear 38 3.3 31 -0.6 76 76 NW 3 6 30.03 1017 10 16 0.00 0.00
8:56 pm 20:56 Clear 38 3.3 31 -0.6 76 76 Calm 30.06 1018 10 16 0.00 0.00
9:56 pm 21:56 Clear 38 3.3 32 0 79 79 NW 3 6 30.07 1018 10 16 0.00 0.00
10:56 pm 22:56 Clear 36 2.2 31 -0.6 82 82 WNW 3 6 30.10 1019 10 16 0.00 0.00
11:56 pm 23:56 Clear 35 1.7 31 -0.6 85 85 Calm 30.11 1020 10 16 0.00 0.00

Powered by AerisWeather